Weather History for Alpena, MI

Change the Weather History Date:

Saturday, November 16, 2013

  Actual Average Record
Temperature  
Mean Temperature 40 °F 36 °F  
Max Temperature 53 °F 43 °F 69 °F (1931)
Min Temperature 26 °F 28 °F 0 °F (1933)
Degree Days  
Heating Degree Days 25 29  
Month to date heating degree days 419 429  
Since 1 July heating degree days 1349 1373  
Moisture  
Dew Point 38 °F    
Average Humidity 79    
Maximum Humidity 92    
Minimum Humidity 66    
Precipitation  
Precipitation 0.02 in 0.07 in 0.81 in (1961)
Month to date precipitation 0.85 1.13  
Year to date precipitation 28.30 25.44  
Snow  
Snow 0.00 in 0.30 in 9.90 in (1989)
Month to date snowfall 0.3 2.7  
Since 1 July snowfall 0.3 3.1  
Snow Depth 0.00 in    
Sea Level Pressure  
Sea Level Pressure 29.88 in    
Wind  
Wind Speed 10 mph (South)    
Max Wind Speed 24 mph    
Max Gust Speed 32 mph    
Visibility 10 miles    
Events Rain    
T = Trace of Precipitation, MM = Missing Value Source: NWS Daily Summary

Daily Weather History Graph

Daily Weather History Graph

Search for Another Location

Airport:

Trip Planner

Search our weather history database for the weather conditions in past years. The results will help you decide how hot, cold, wet, or windy it might be!

Date:

Astronomy

Nov. 16, 2013 Rise Set
Actual Time 7:33 AM EST 5:03 PM EST
Civil Twilight 7:01 AM EST 5:35 PM EST
Nautical Twilight 6:26 AM EST 6:11 PM EST
Astronomical Twilight 5:51 AM EST 6:46 PM EST
Moon 4:40 PM EST 6:26 AM EST
Length of Visible Light 10h 33m
Length of Day
9h 30m
Waxing Gibbous, 99% of the Moon is Illuminated
Nov 16
Waxing Gibbous
Nov 17
Full
Nov 25
Last Quarter
Dec 2
New
Dec 9
First Quarter

Hourly Weather History & Observations

Time (EST) Temp. Windchill Dew Point Humidity Pressure Visibility Wind Dir Wind Speed Gust Speed Precip Events Conditions
12:54 AM 32.0 °F - 28.9 °F 88% 30.00 in 10.0 mi Calm Calm - N/A   Clear
1:54 AM 30.9 °F - 28.9 °F 92% 30.00 in 10.0 mi Calm Calm - N/A   Clear
2:54 AM 30.0 °F - 27.0 °F 88% 30.01 in 10.0 mi Calm Calm - N/A   Clear
3:54 AM 28.9 °F 23.9 °F 27.0 °F 92% 30.01 in 10.0 mi SSE 4.6 mph - N/A   Clear
4:54 AM 28.9 °F 25.2 °F 27.0 °F 92% 30.02 in 10.0 mi SE 3.5 mph - N/A   Clear
5:54 AM 28.0 °F - 26.1 °F 92% 30.02 in 10.0 mi Calm Calm - N/A   Clear
6:54 AM 27.0 °F - 25.0 °F 92% 30.04 in 9.0 mi Calm Calm - N/A   Clear
7:54 AM 28.9 °F - 26.1 °F 89% 30.04 in 7.0 mi Calm Calm - N/A   Clear
8:54 AM 37.9 °F 30.5 °F 32.0 °F 79% 30.02 in 10.0 mi South 11.5 mph - N/A   Overcast
9:54 AM 42.1 °F 36.1 °F 33.1 °F 70% 30.01 in 10.0 mi South 10.4 mph - N/A   Clear
10:54 AM 45.0 °F 39.3 °F 36.0 °F 71% 29.99 in 10.0 mi South 11.5 mph - N/A   Clear
11:54 AM 50.0 °F - 39.0 °F 66% 29.95 in 10.0 mi SSE 11.5 mph - N/A   Clear
12:54 PM 50.0 °F - 39.9 °F 68% 29.93 in 10.0 mi South 17.3 mph 29.9 mph N/A   Mostly Cloudy
1:54 PM 52.0 °F - 42.1 °F 69% 29.89 in 10.0 mi South 17.3 mph 26.5 mph N/A   Mostly Cloudy
2:54 PM 53.1 °F - 43.0 °F 69% 29.86 in 10.0 mi South 17.3 mph 21.9 mph N/A   Scattered Clouds
3:54 PM 51.1 °F - 43.0 °F 74% 29.84 in 10.0 mi SSE 18.4 mph 26.5 mph N/A   Scattered Clouds
4:54 PM 50.0 °F - 43.0 °F 77% 29.83 in 10.0 mi SSE 12.7 mph - N/A   Clear
5:52 PM 50.0 °F - 44.6 °F 82% 29.80 in 10.0 mi SSE 10.4 mph - N/A   Mostly Cloudy
5:54 PM 50.0 °F - 44.1 °F 80% 29.82 in 10.0 mi SSE 8.1 mph - N/A   Mostly Cloudy
6:54 PM 52.0 °F - 45.0 °F 77% 29.80 in 10.0 mi South 13.8 mph - N/A   Overcast
7:54 PM 52.0 °F - 45.0 °F 77% 29.77 in 10.0 mi South 16.1 mph 25.3 mph N/A   Overcast
8:54 PM 52.0 °F - 46.0 °F 80% 29.74 in 10.0 mi South 19.6 mph 29.9 mph N/A   Overcast
9:27 PM 52.0 °F - 46.0 °F 80% 29.71 in 10.0 mi South 23.0 mph 29.9 mph N/A   Scattered Clouds
9:54 PM 52.0 °F - 46.0 °F 80% 29.71 in 10.0 mi South 17.3 mph 27.6 mph 0.00 in Rain Light Rain
10:26 PM 53.1 °F - 46.9 °F 80% 29.68 in 10.0 mi South 17.3 mph 27.6 mph 0.00 in   Overcast
10:54 PM 53.1 °F - 46.9 °F 80% 29.68 in 10.0 mi South 17.3 mph 24.2 mph 0.00 in   Overcast
11:10 PM 52.0 °F - 46.9 °F 83% 29.67 in 10.0 mi South 18.4 mph 25.3 mph 0.00 in Rain Light Rain
11:21 PM 53.1 °F - 48.0 °F 83% 29.67 in 10.0 mi South 19.6 mph 32.2 mph 0.00 in Rain Light Rain
11:54 PM 52.0 °F - 48.9 °F 89% 29.66 in 8.0 mi South 18.4 mph - 0.02 in Rain Light Rain